Location: ???????????
(55.5758°N, 38.4970°E)
Time: 18:26:30
(UTC+00:00)

COSMO-SKYMED 1 - Pass Details

Date: 15 November 2025
Orbit: 579 x 581 km, 97.9° (Epoch: 14 December)

Event Time Altitude Azimuth Distance (km) Brightness Sun altitude
Rises 03:56:46 0° 208° (SSW) 2,797 5.8 -8.9°
Reaches altitude 10° 03:59:31 10° 228° (SW) 1,903 4.8 -8.5°
Maximum altitude 04:02:20 18° 271° (W) 1,479 3.9 -8.2°
Drops below altitude 10° 04:05:08 10° 314° (NW) 1,912 4.5 -7.8°
Enters shadow 04:06:32 - 326° (NW) 2,331 5.0 -7.6°
